Wind_Speed
48 48 47 46 46 45 44 43 42 41 39 39 39 39 37 36 34 32 31 28 26 24 22 20 19 18 17 16 16 17 18 20 21 23 24 26 27 29
51 51 51 50 51 49 48 47 46 44 42 41 40 39 39 38 37 36 34 31 29 27 25 23 21 20 19 18 18 18 19 20 21 22 24 25 27 28
55 55 54 54 54 54 52 51 49 47 45 44 43 42 41 40 40 39 37 34 32 30 27 25 24 22 21 20 20 20 20 20 21 22 23 24 26 28
56 57 57 57 56 56 56 55 54 52 49 47 45 43 43 42 41 41 39 38 35 32 30 28 26 24 23 22 21 21 21 21 21 22 23 24 25 27
57 59 60 61 60 59 58 57 57 56 54 51 49 47 45 44 43 41 41 40 38 35 32 30 28 26 24 23 22 22 22 21 22 22 22 23 24 25
58 59 61 62 63 62 62 60 59 59 58 56 53 49 49 47 45 43 42 41 40 37 35 32 30 27 25 24 23 23 23 22 22 22 23 23 23 24
57 58 60 62 63 65 64 63 62 61 61 58 57 54 52 49 48 45 44 43 41 40 37 35 32 29 27 25 25 24 23 23 23 23 23 22 22 23
55 56 57 59 60 64 65 66 65 63 62 62 60 58 56 52 51 48 45 45 43 42 40 37 33 30 28 27 25 25 24 23 23 22 22 22 22 22
52 53 54 56 57 59 62 64 66 65 65 64 62 61 58 56 54 52 47 45 45 43 41 38 35 32 30 28 26 25 24 23 23 22 22 22 22 22
47 49 50 50 52 53 56 58 61 63 64 66 65 63 60 57 54 52 52 49 44 43 41 39 36 34 31 30 28 26 25 24 23 22 21 21 21 20
42 44 45 46 47 48 50 53 55 58 61 63 64 64 61 59 57 55 52 49 45 43 42 40 38 35 33 31 29 27 26 25 23 22 21 20 20 20
38 39 41 43 43 44 44 46 48 50 54 57 59 61 61 59 57 55 53 50 47 44 42 40 38 36 33 31 29 28 27 25 23 22 21 20 20 20
33 34 36 38 40 40 39 40 42 44 46 49 51 54 57 58 56 55 53 50 47 43 42 40 39 36 34 32 30 28 27 25 23 22 21 20 20 19
30 31 32 33 35 36 36 36 37 39 41 43 46 48 51 53 54 54 52 49 47 44 42 41 39 36 33 31 29 28 26 25 23 22 21 20 20 19
27 28 29 30 32 33 33 33 33 34 36 39 42 44 46 47 49 49 49 47 46 45 42 40 38 36 34 31 29 28 26 24 23 22 21 20 19 18
25 26 26 27 28 29 30 30 30 30 32 35 38 41 43 44 46 46 46 46 45 45 43 40 39 36 34 33 30 28 26 25 23 22 21 20 19 18
24 24 25 26 26 27 27 28 28 29 30 33 36 38 40 42 43 44 43 45 45 45 43 40 37 35 33 32 30 29 27 25 23 22 21 20 19 19
22 23 24 24 24 25 25 26 27 27 29 33 35 36 38 40 41 42 42 44 44 43 42 39 36 34 33 31 29 28 26 24 23 22 21 20 19 18
21 23 24 23 23 23 24 24 24 26 28 32 33 35 37 39 40 41 41 42 43 42 41 39 37 35 32 29 27 26 25 24 22 21 21 20 19 18
19 21 22 22 22 22 22 22 23 25 28 31 34 35 36 38 40 41 41 42 42 41 41 40 37 34 31 29 27 26 24 23 22 21 20 20 19 18
16 19 20 21 22 22 21 21 22 25 27 31 34 35 36 38 40 40 41 42 41 41 39 37 36 34 32 29 27 26 24 23 22 21 20 19 19 18
13 15 17 19 20 20 21 21 22 24 27 30 33 34 35 38 40 41 41 41 40 39 37 35 35 33 31 29 27 26 24 23 22 21 20 20 19 19
12 14 15 17 18 19 19 21 22 24 27 30 32 34 36 39 40 40 40 40 39 37 36 34 32 31 29 28 26 25 24 22 22 21 21 20 20 20
Wind_Direction
249 245 243 241 241 240 239 238 237 235 233 232 232 230 230 229 228 228 229 230 233 235 239 244 249 255 262 269 277 282 282 280 277 272 266 263 261 258
250 246 243 241 241 240 239 238 237 235 233 232 231 230 231 230 229 228 229 230 233 235 238 243 248 255 261 268 275 281 283 283 280 276 271 267 264 262
251 247 245 242 240 240 239 237 235 235 234 233 233 232 231 230 229 229 229 230 232 235 238 242 247 253 259 266 272 278 281 283 283 279 275 271 268 265
250 247 245 242 241 239 238 237 236 234 233 233 233 232 232 231 229 229 229 230 232 234 237 240 245 251 257 263 270 275 278 281 284 282 277 272 270 268
250 247 244 242 241 239 238 238 237 235 233 233 232 231 232 233 230 230 230 230 231 233 235 239 243 249 255 261 268 273 276 279 281 282 281 276 273 271
249 246 244 242 240 239 238 237 236 235 233 232 233 232 232 234 233 232 231 230 231 232 234 237 242 247 254 260 265 270 274 278 280 281 282 279 276 274
248 245 243 241 240 239 238 237 236 236 234 232 232 232 232 233 235 234 233 231 231 232 234 237 240 246 252 258 263 267 271 275 278 279 280 280 278 278
245 244 242 240 239 238 238 237 236 235 235 233 232 232 233 233 234 235 234 232 232 232 233 236 239 243 249 254 259 264 268 272 275 277 279 279 279 277
243 242 241 239 238 237 237 236 236 235 235 234 233 231 233 234 235 234 232 232 232 232 233 235 237 242 247 251 256 260 265 269 273 274 276 278 279 277
240 239 238 238 237 236 236 236 235 235 235 235 234 232 231 231 231 233 234 233 233 232 232 234 237 241 244 249 253 257 262 266 269 272 273 276 275 274
236 235 235 235 235 235 234 235 235 235 234 235 235 234 231 230 230 230 231 231 232 232 232 234 236 238 242 246 250 254 258 262 266 269 271 272 273 273
231 231 231 231 231 232 232 233 234 235 234 233 233 234 233 230 230 230 230 232 233 232 232 233 233 234 239 243 247 251 255 258 261 265 267 269 270 271
225 225 227 227 227 227 227 229 231 232 232 231 230 231 231 230 229 229 231 231 232 231 232 232 232 233 236 241 245 248 252 254 258 262 264 267 269 270
221 221 221 222 222 221 222 224 225 227 228 227 226 226 227 227 227 228 230 230 230 230 230 231 230 231 235 240 244 246 249 252 254 258 261 265 267 268
216 216 215 216 217 218 220 221 222 223 225 225 223 222 222 222 221 223 225 226 226 226 227 229 230 230 233 239 242 244 246 249 251 255 258 261 263 266
211 211 210 210 213 215 218 220 221 222 222 221 219 217 216 216 216 218 221 221 221 224 226 229 230 231 234 236 239 241 243 246 250 253 255 257 260 263
209 208 208 209 212 214 216 217 218 219 219 217 213 212 211 211 213 213 215 217 218 221 225 226 227 229 230 232 236 239 241 244 248 251 253 256 258 262
206 206 206 208 210 211 213 215 217 218 216 211 209 208 208 208 209 209 211 213 214 217 219 220 221 224 227 229 233 235 238 241 245 248 251 254 256 258
205 206 207 209 211 211 212 213 215 215 212 208 205 203 202 204 205 206 208 209 211 213 214 215 217 220 223 226 227 232 237 240 243 246 248 250 252 254
204 207 209 210 211 211 211 212 213 212 209 206 201 199 199 200 202 202 202 204 205 209 211 213 215 217 220 224 227 231 234 236 239 243 244 247 249 251
206 208 210 211 210 210 210 210 210 209 207 204 200 200 198 198 198 199 199 200 202 205 207 210 212 215 218 222 225 228 231 232 235 238 241 243 244 245
205 207 209 210 210 210 209 208 207 207 205 201 199 200 196 194 194 195 196 197 199 201 202 205 209 212 215 218 222 225 228 231 233 235 238 240 241 243
206 205 205 205 207 207 208 206 205 204 200 196 195 193 190 188 188 190 193 194 195 197 199 202 205 209 213 215 218 222 226 227 229 233 236 239 241 244
Height
5735 5739 5744 5749 5754 5759 5764 5769 5775 5780 5785 5790 5795 5800 5805 5809 5813 5818 5822 5826 5829 5833 5836 5838 5840 5842 5843 5844 5844 5845 5845 5845 5845 5846 5846 5847 5848 5849
5720 5725 5730 5736 5741 5747 5752 5758 5763 5769 5775 5781 5786 5791 5795 5800 5805 5810 5814 5819 5823 5826 5829 5832 5835 5836 5838 5839 5839 5839 5839 5839 5839 5839 5840 5840 5841 5842
5705 5709 5715 5720 5726 5732 5739 5745 5751 5757 5764 5770 5775 5781 5785 5790 5796 5801 5806 5811 5815 5819 5823 5826 5829 5831 5832 5833 5834 5834 5834 5834 5834 5834 5834 5834 5834 5835
5688 5693 5699 5705 5711 5717 5724 5731 5738 5745 5751 5758 5764 5770 5775 5780 5786 5792 5798 5803 5807 5812 5816 5819 5822 5824 5826 5827 5828 5829 5828 5828 5828 5828 5828 5828 5828 5828
5670 5675 5681 5688 5695 5701 5709 5716 5724 5731 5738 5746 5753 5759 5764 5769 5776 5782 5788 5794 5799 5804 5808 5812 5815 5818 5820 5821 5822 5823 5823 5823 5822 5822 5822 5822 5821 5822
5651 5657 5663 5670 5677 5684 5692 5700 5709 5716 5724 5732 5740 5747 5754 5759 5766 5772 5779 5785 5790 5796 5800 5804 5808 5811 5813 5815 5816 5817 5817 5817 5817 5816 5816 5816 5815 5815
5632 5638 5644 5651 5659 5667 5675 5684 5692 5701 5710 5718 5727 5734 5742 5748 5756 5762 5768 5775 5781 5787 5792 5797 5801 5804 5806 5808 5809 5811 5811 5811 5811 5811 5811 5810 5810 5809
5613 5620 5626 5633 5641 5649 5658 5667 5676 5685 5695 5704 5713 5721 5730 5737 5744 5750 5758 5765 5772 5778 5783 5788 5793 5796 5799 5801 5803 5804 5805 5806 5806 5805 5805 5805 5805 5804
5596 5602 5609 5617 5625 5633 5641 5650 5660 5669 5679 5689 5698 5708 5717 5726 5733 5740 5747 5754 5761 5768 5774 5780 5785 5789 5792 5794 5796 5798 5799 5800 5800 5800 5800 5800 5799 5799
5581 5587 5594 5601 5610 5618 5626 5634 5642 5653 5664 5674 5685 5694 5703 5712 5721 5729 5736 5743 5751 5758 5765 5771 5776 5781 5784 5787 5790 5791 5793 5794 5794 5794 5794 5794 5794 5794
5567 5574 5581 5589 5597 5605 5613 5621 5629 5637 5646 5657 5668 5678 5688 5698 5708 5716 5725 5733 5742 5749 5756 5762 5768 5772 5776 5780 5782 5785 5786 5787 5788 5789 5789 5789 5790 5790
5556 5563 5570 5578 5585 5593 5601 5609 5617 5624 5633 5643 5653 5664 5675 5685 5695 5705 5714 5723 5731 5739 5746 5753 5759 5764 5768 5772 5775 5778 5780 5781 5782 5783 5784 5784 5785 5785
5547 5554 5561 5568 5576 5584 5591 5599 5606 5613 5622 5631 5641 5651 5662 5673 5683 5694 5704 5713 5722 5730 5737 5743 5750 5756 5761 5765 5768 5771 5773 5775 5776 5777 5778 5779 5780 5780
5540 5546 5553 5560 5568 5576 5583 5590 5597 5604 5612 5621 5629 5640 5650 5661 5672 5682 5693 5703 5712 5720 5727 5734 5742 5748 5753 5757 5761 5764 5767 5768 5770 5772 5773 5774 5774 5775
5534 5541 5547 5554 5561 5569 5576 5583 5589 5596 5604 5611 5620 5629 5639 5650 5660 5671 5682 5692 5701 5710 5719 5726 5733 5740 5745 5750 5754 5757 5760 5762 5764 5766 5768 5769 5770 5770
5531 5537 5543 5549 5557 5563 5570 5577 5583 5589 5596 5603 5611 5619 5629 5639 5650 5661 5672 5683 5692 5702 5711 5719 5725 5732 5738 5743 5747 5751 5754 5756 5759 5760 5762 5763 5764 5765
5528 5534 5540 5546 5553 5559 5565 5571 5576 5582 5588 5595 5603 5611 5620 5631 5641 5652 5663 5673 5684 5694 5703 5711 5718 5724 5730 5735 5739 5744 5747 5750 5753 5754 5756 5758 5759 5760
5526 5531 5537 5543 5549 5554 5560 5565 5570 5576 5581 5588 5595 5604 5613 5623 5633 5644 5654 5665 5675 5685 5694 5703 5711 5718 5724 5728 5733 5737 5741 5744 5746 5748 5750 5752 5753 5754
5523 5529 5534 5540 5545 5550 5555 5560 5565 5570 5575 5581 5589 5597 5607 5616 5626 5637 5647 5657 5667 5677 5687 5695 5704 5711 5717 5721 5726 5730 5734 5738 5740 5742 5744 5746 5748 5749
5521 5526 5531 5536 5540 5545 5550 5555 5560 5565 5570 5577 5584 5592 5601 5610 5620 5630 5641 5651 5661 5670 5680 5689 5697 5704 5710 5715 5719 5724 5728 5731 5734 5736 5738 5740 5742 5744
5519 5523 5527 5532 5537 5541 5546 5551 5556 5561 5566 5572 5580 5587 5595 5605 5615 5625 5635 5646 5655 5665 5674 5683 5690 5697 5702 5708 5713 5718 5722 5725 5728 5730 5733 5735 5737 5739
5518 5521 5525 5529 5533 5538 5543 5548 5553 5558 5563 5569 5576 5583 5591 5600 5610 5621 5631 5641 5651 5660 5669 5676 5683 5690 5696 5702 5707 5712 5716 5719 5722 5724 5727 5730 5731 5733
5518 5520 5524 5527 5531 5536 5540 5545 5550 5555 5561 5567 5573 5580 5588 5598 5608 5618 5627 5637 5646 5655 5663 5671 5677 5684 5690 5696 5701 5706 5710 5713 5716 5719 5722 5724 5726 5728